Location: Arrien
(43.3167°N, 0.1500°W)
Time: 22:33:14
(UTC+00:00)

DMSP B5D2-2 - Pass Details

Date: 15 October 2021
Orbit: 789 x 806 km, 98.3° (Epoch: 04 December)

Event Time Altitude Azimuth Distance (km) Brightness Sun altitude
Rises 18:30:17 0° 18° (NNE) 3,323 7.1 -14.0°
Reaches altitude 10° 18:32:44 10° 25° (NNE) 2,386 6.3 -14.5°
Maximum altitude 18:37:48 47° 99° (E) 1,050 4.3 -15.4°
Drops below altitude 10° 18:42:49 10° 173° (S) 2,358 6.4 -16.3°
Sets 18:45:13 0° 179° (S) 3,280 7.2 -16.7°
